Airfield :
LOGIN :

Register | Disclaimer

   EN    FR    IT 

 










Legend :    VFR   Marginal VFR   IFR   Intensive IFR   Very Intensive IFR
Visi :
Ceiling :
>= 8 km
>= 3000ft
5 to 8 km
1000 to 3000 ft
1500m to 5 km
500 to 1000 ft
800 to 1500m
200 to 500 ft
< 800m
< 200 ft
Symbols :   Thunderstorms  Fog  Heavy snow  Heavy precipitations  Wind > 20 kt
SIGMETs :     Misc.  Thunderstorms  Icing  Turbulence  Mountain Waves  Volcanic Ashes







- Airport Elevation : 65 ft
- IATA code : PMO


LICJ - Palermo Punta Raisi

CURRENT METAR :
  • 162150Z 16004KT 150V220 CAVOK 16/12 Q1026

EXPIRED METARs :
  • 162120Z VRB02KT CAVOK 18/14 Q1026
  • 162050Z 19003KT 170V230 CAVOK 17/14 Q1026
  • 162020Z 16003KT 140V230 CAVOK 18/14 Q1026
  • 161950Z 15003KT CAVOK 18/14 Q1026
  • 161920Z 19004KT 090V250 CAVOK 19/14 Q1026

TAF TAF LICJ
Valid from the 16 at 18:00 until the 17 at 18:00 UTC


161700Z 1618/1718 19007KT CAVOK
BECMG 1708/1710 03013KT
No reported NOTAMs for that airfield.



MET'MAP, your aeronautical weather chart ! - Copyright ORBIFLY December 2007 - Disclaimer

ORBIFLY MET'MAP TEAM :

Programming & Development : Alexandra Zaïnal
Concept & Development : Baudouin d'Aumeries
Co-Development & Prog : Marc-Olivier Méhu
Technical & hardware support : Manuel Goepfert

Contact : metmap@orbifly.com




SOURCES & CREDITS :

   NOAA